Weather History for London-Corbin, KY

Change the Weather History Date:

Thursday, October 24, 2013

  Actual Average Record
Temperature  
Mean Temperature 42 °F 55 °F  
Max Temperature 51 °F 67 °F 82 °F (2001)
Min Temperature 32 °F 43 °F 24 °F (1962)
Degree Days  
Heating Degree Days 23 11  
Month to date heating degree days 155 179  
Since 1 July heating degree days 170 226  
Cooling Degree Days 0 0  
Month to date cooling degree days 39 17  
Year to date cooling degree days 1080 1184  
Moisture  
Dew Point 33 °F    
Average Humidity 71    
Maximum Humidity 92    
Minimum Humidity 50    
Precipitation  
Precipitation 0.01 in 0.10 in 0.96 in (1967)
Month to date precipitation 2.84 2.28  
Year to date precipitation 46.49 38.33  
Sea Level Pressure  
Sea Level Pressure 30.18 in    
Wind  
Wind Speed 4 mph (WNW)    
Max Wind Speed 16 mph    
Max Gust Speed 21 mph    
Visibility 10 miles    
Events Rain    
T = Trace of Precipitation, MM = Missing Value Source: NWS Daily Summary

Daily Weather History Graph

Daily Weather History Graph

Search for Another Location

Airport:

Trip Planner

Search our weather history database for the weather conditions in past years. The results will help you decide how hot, cold, wet, or windy it might be!

Date:

Astronomy

Oct. 24, 2013 Rise Set
Actual Time 7:52 AM EDT 6:47 PM EDT
Civil Twilight 7:26 AM EDT 7:14 PM EDT
Nautical Twilight 6:55 AM EDT 7:44 PM EDT
Astronomical Twilight 6:25 AM EDT 8:14 PM EDT
Moon 11:13 PM EDT (10/24) 12:50 PM EDT (10/24)
Length of Visible Light 11h 47m
Length of Day
10h 54m
Waning Gibbous, 71% of the Moon is Illuminated
Oct 24
Waning Gibbous
Oct 26
Last Quarter
Nov 3
New
Nov 10
First Quarter
Nov 17
Full

Hourly Weather History & Observations

Time (EDT) Temp. Windchill Dew Point Humidity Pressure Visibility Wind Dir Wind Speed Gust Speed Precip Events Conditions
12:53 AM 33.1 °F - 30.0 °F 89% 30.11 in 6.0 mi Calm Calm - N/A   Clear
1:53 AM 34.0 °F - 30.9 °F 89% 30.11 in 8.0 mi Calm Calm - N/A   Overcast
2:53 AM 36.0 °F - 33.1 °F 89% 30.12 in 10.0 mi Calm Calm - N/A   Overcast
3:53 AM 36.0 °F - 33.1 °F 89% 30.12 in 8.0 mi Calm Calm - N/A   Overcast
4:53 AM 37.0 °F - 34.0 °F 89% 30.12 in 10.0 mi Calm Calm - N/A   Overcast
5:53 AM 37.9 °F - 35.1 °F 89% 30.13 in 9.0 mi Calm Calm - N/A   Overcast
6:53 AM 37.9 °F - 35.1 °F 89% 30.13 in 9.0 mi Calm Calm - N/A   Overcast
7:53 AM 39.0 °F - 36.0 °F 89% 30.15 in 10.0 mi Calm Calm - N/A   Overcast
8:53 AM 39.9 °F - 36.0 °F 86% 30.17 in 10.0 mi Calm Calm - N/A   Overcast
9:53 AM 41.0 °F - 36.0 °F 82% 30.18 in 10.0 mi Calm Calm - N/A   Overcast
10:53 AM 43.0 °F 41.3 °F 32.0 °F 65% 30.18 in 10.0 mi WSW 3.5 mph - N/A   Overcast
11:53 AM 46.0 °F 41.9 °F 30.9 °F 56% 30.18 in 10.0 mi West 8.1 mph - N/A   Overcast
12:53 PM 48.0 °F - 32.0 °F 54% 30.17 in 10.0 mi West 6.9 mph - N/A   Overcast
1:53 PM 48.0 °F - 33.1 °F 56% 30.16 in 10.0 mi West 5.8 mph - N/A   Overcast
2:53 PM 51.1 °F - 33.1 °F 50% 30.14 in 10.0 mi Variable 6.9 mph - N/A   Mostly Cloudy
3:53 PM 48.9 °F - 32.0 °F 52% 30.14 in 10.0 mi WNW 8.1 mph - N/A   Overcast
4:53 PM 48.9 °F - 32.0 °F 52% 30.14 in 10.0 mi WNW 13.8 mph 19.6 mph 0.00 in   Overcast
5:53 PM 46.9 °F - 33.1 °F 59% 30.16 in 10.0 mi WNW 10.4 mph - 0.00 in Rain Light Rain
6:53 PM 44.1 °F 38.6 °F 35.1 °F 71% 30.19 in 10.0 mi WNW 10.4 mph 19.6 mph 0.00 in Rain Light Rain
7:21 PM 42.8 °F 36.2 °F 35.6 °F 76% 30.20 in 10.0 mi NNW 12.7 mph - 0.00 in Rain Light Rain
7:53 PM 39.9 °F 35.1 °F 36.0 °F 86% 30.24 in 8.0 mi NNW 6.9 mph - 0.01 in Rain Light Rain
8:35 PM 37.4 °F 28.9 °F 30.2 °F 75% 30.24 in 10.0 mi NW 13.8 mph 20.7 mph 0.00 in   Mostly Cloudy
8:53 PM 37.0 °F 31.0 °F 28.9 °F 73% 30.27 in 10.0 mi NW 8.1 mph 19.6 mph 0.00 in   Mostly Cloudy
9:53 PM 36.0 °F 33.3 °F 28.9 °F 76% 30.29 in 10.0 mi West 3.5 mph - N/A   Overcast
10:53 PM 36.0 °F - 28.9 °F 76% 30.30 in 10.0 mi Calm Calm - N/A   Mostly Cloudy
11:53 PM 36.0 °F 32.1 °F 28.9 °F 76% 30.31 in 10.0 mi WSW 4.6 mph - N/A   Overcast